Weather in Novoye Ustye

Russia / Khabarovsk Krai     59°19′43″N   143°03′23″E
temp.,
°C
wind,
m/s
gust,
m/s
humid.,
%
clouds,
%
prec.,
mm/h
press.,
hPa
HPBL,
m
20 january, thu
thu2001:00−23nne46874 0.0 102470
04:00−24n46883 0.0 102473
07:00−24n47874 0.0 102479
10:00−24n47864 0.0 102583
13:00−19n478051 0.0 1024122
16:00−20nnw34845 0.0 102446
19:00−23n34865 0.0 102445
22:00−23n46842 0.0 102370
21 january, fri
fri2101:00−24n46851 0.0 102371
04:00−24n46850 0.0 102280
07:00−25n46862 0.0 102281
10:00−25n46885 0.0 102284
13:00−21nnw35795 0.0 1021114
16:00−22nnw34885 0.0 102060
19:00−24n34902 0.0 102064
22:00−25n46892 0.0 102076
22 january, sat
sat2201:00−25n46895 0.0 101981
04:00−26n45905 0.0 101980
07:00−26n46912 0.0 101983
10:00−26n46913 0.0 101894
13:00−22nnw34851 0.0 1018115
16:00−23nnw23942 0.0 101755
19:00−25n34943 0.0 101756
22:00−25n35934 0.0 101673
23 january, sun
sun2301:00−26n45945 0.0 101578
04:00−26n3596100 0.0 101477
07:00−23nnw2491100 0.0 101492
10:00−22nw2389100 0.0 101399
13:00−19nw1280100 0.0 1012114
16:00−19w1288100 0.0 101258
19:00−19n2293100 0.0 101138
22:00−21n2397100 0.0 101166
24 january, mon
mon2401:00−22n4695100 0.0 101192
04:00−24n58947 0.0 1011107
07:00−26n589313 0.0 1012107
10:00−27n479413 0.0 1012116
13:00−23n46905 0.0 1013171
16:00−24n34955 0.0 101379
19:00−27n33965 0.0 101459
22:00−28n469640 0.0 101584